[[{"header":{"parameterUnit":"m.s-1","parameterCategory":1,"la1":30.2991,"la2":30.254,"lo1":-89.0895,"lo2":-89.0444,"dy":0.0017,"dx":0.0017,"nx":28,"ny":28,"refTime":"2025-04-15T21:00:00:Z","depth":0,"parameterNumber":2,"parameterNumberName":"U-component_of_WINDS"},"data":[0,0,0,0,0,0,0,0,0,0,0,0,0,0,0,0,0,0,0,0,0,0,0,0,0,0,0,0,0,0,0,0,0,0,0,0,0,0,0,0,0,0,0,0,0,0,0,0,0,0,0,0,0,0,0,0,0,0,0.8069,0.807,0,0.8132,0.8133,0.8134,0.8153,0.8153,0.8153,0.8153,0.8215,0.8217,0.8219,0,0,0,0,0,0,0,0,0,0,0,0,0,0.7963,0.7965,0.8069,0.807,0.8071,0.8132,0.8133,0.8134,0.8153,0.8153,0.8153,0.8152,0.8214,0.8216,0.8219,0,0,0,0,0,0,0,0,0,0,0,0,0,0.8016,0.7966,0.8069,0.8088,0.8091,0.8132,0.8133,0.8134,0.8154,0.8153,0.8153,0.8152,0.8213,0.8216,0.8219,0.8246,0,0,0.8228,0.8229,0,0,0,0,0,0,0,0,0.8013,0.802,0.8085,0.8087,0.809,0.8135,0.8118,0.8171,0.8154,0.813,0.8153,0.8152,0.8188,0.8193,0.8206,0.8248,0.8251,0.8228,0.823,0.8231,0.8232,0,0,0,0,0,0,0,0.8009,0.8017,0.8094,0.8085,0.8089,0.8092,0.8099,0.8128,0.8161,0.8132,0.8133,0.814,0.819,0.8203,0.8208,0.8252,0.8228,0.8231,0.8232,0.8234,0.8317,0.8318,0,0,0,0,0,0,0.8003,0.8014,0.8092,0.8096,0.8049,0.8095,0.8103,0.8121,0.816,0.8166,0.8141,0.8141,0.8198,0.8204,0.821,0.8242,0.8231,0.8234,0.8236,0.8317,0.8317,0.8318,0,0,0,0,0,0,0.8,0.8009,0.809,0.8055,0.8066,0.8097,0.8117,0.8122,0.8136,0.8167,0.8173,0.8149,0.8198,0.8206,0.8236,0.8245,0.8235,0.8238,0.8316,0.8317,0.8318,0.8308,0,0,0,0,0,0,0.7997,0.8009,0.802,0.8056,0.8068,0.8116,0.8118,0.8124,0.8141,0.8142,0.8176,0.8182,0.8199,0.8232,0.8239,0.8248,0.824,0.8316,0.8317,0.8317,0.8307,0.8308,0.8308,0,0,0,0,0,0.7993,0.8014,0.802,0.803,0.8083,0.8116,0.8123,0.8143,0.8141,0.8152,0.8172,0.818,0.8242,0.8235,0.8243,0.8253,0.8315,0.8316,0.8317,0.8307,0.8308,0.8308,0,0,0,0,0,0,0.7979,0.802,0.8027,0.806,0.8085,0.812,0.8134,0.8143,0.8168,0.8168,0.8191,0.8198,0.8227,0.8243,0.8234,0.828,0.8279,0.8282,0.8268,0.8269,0.827,0.8265,0.8242,0,0,0,0,0,0.7979,0.8004,0.8038,0.8065,0.8077,0.8103,0.8119,0.8132,0.8158,0.8168,0.819,0.8215,0.8239,0.8255,0.828,0.831,0.8317,0.8321,0.8321,0.8322,0.8324,0.8339,0.8341,0.8321,0.8321,0.8321,0,0,0.7981,0.8006,0.8021,0.8062,0.8083,0.8107,0.8112,0.8138,0.8155,0.8172,0.8202,0.8219,0.8247,0.8277,0.8291,0.8291,0.833,0.8323,0.8323,0.8325,0.834,0.8342,0.8344,0.8322,0.8322,0.8322,0,0,0.7996,0.8019,0.8042,0.8062,0.8093,0.8111,0.8116,0.815,0.8162,0.8192,0.8205,0.8225,0.8268,0.8287,0.8303,0.8323,0.8331,0.833,0.8333,0.8348,0.8349,0.8351,0.8357,0.8359,0.8332,0.8332,0.8332,0,0.7994,0.8032,0.8053,0.8078,0.8095,0.8111,0.8134,0.8152,0.8189,0.82,0.82,0.8253,0.8274,0.8307,0.8312,0.8324,0.833,0.8327,0.8348,0.8349,0.8351,0.8357,0.8359,0.8332,0.8332,0.8332,0.8332,0,0.8027,0.8053,0.8068,0.8103,0.8122,0.8146,0.8169,0.8186,0.8196,0.8213,0.8243,0.8268,0.8297,0.8306,0.8317,0.8341,0.834,0.8343,0.8343,0.8352,0.8358,0.8361,0.8332,0.8332,0.8332,0.8332,0,0,0.8035,0.8081,0.8086,0.8102,0.8137,0.8156,0.818,0.8209,0.8222,0.8246,0.8266,0.8301,0.8304,0.8321,0.8334,0.8347,0.836,0.8349,0.835,0.835,0.8386,0.8383,0.8386,0.8366,0.8366,0.8367,0.8384,0,0.8054,0.8098,0.8117,0.8151,0.8174,0.8189,0.8209,0.8232,0.8248,0.8269,0.8286,0.831,0.8313,0.8324,0.8337,0.8356,0.8368,0.8355,0.8383,0.8384,0.8375,0.8389,0.8386,0.8401,0.8386,0.8387,0.8387,0,0.8082,0.8107,0.8144,0.8174,0.8185,0.8203,0.823,0.825,0.8275,0.8286,0.8305,0.8317,0.8341,0.8338,0.8371,0.8361,0.8374,0.8385,0.8386,0.8389,0.8386,0.8391,0.8406,0.8408,0.8391,0.8391,0.8391,0,0.8083,0.8125,0.8153,0.8166,0.8202,0.8214,0.823,0.8255,0.827,0.8294,0.8304,0.833,0.8344,0.8363,0.8381,0.8378,0.8411,0.8411,0.8419,0.8419,0.8426,0.8425,0.8442,0.8435,0.8435,0.8435,0.8434,0,0.8101,0.8123,0.8153,0.817,0.8194,0.8215,0.8238,0.8254,0.8276,0.8295,0.831,0.8327,0.835,0.837,0.8385,0.8409,0.8415,0.8423,0.8427,0.8422,0.8421,0.843,0.8429,0.8435,0.8435,0.8435,0.8435,0,0.8106,0.8128,0.8158,0.819,0.8198,0.8215,0.8241,0.8257,0.8273,0.8297,0.8304,0.8329,0.8354,0.8374,0.8405,0.8415,0.844,0.8444,0.8431,0.8433,0.844,0.8439,0.8463,0.8467,0.8458,0.8458,0.8458,0,0.8117,0.8134,0.8167,0.8181,0.8196,0.8219,0.8235,0.8255,0.8271,0.83,0.8312,0.8338,0.8359,0.8397,0.8418,0.8442,0.8446,0.8453,0.845,0.8444,0.8445,0.8444,0.8445,0.8453,0.8453,0.8453,0.8453,0,0.8132,0.8141,0.8164,0.819,0.8209,0.823,0.8252,0.8262,0.8286,0.8303,0.8328,0.8345,0.8377,0.8401,0.8427,0.8442,0.8451,0.8454,0.8457,0.8452,0.8444,0.8447,0.8431,0.8453,0.8453,0.8453,0.8453,0.8453,0.8139,0.8154,0.818,0.8204,0.8223,0.8242,0.8259,0.8277,0.8298,0.8326,0.8337,0.8362,0.8385,0.8421,0.8436,0.8456,0.8457,0.8461,0.8463,0.8463,0.8462,0.8441,0.846,0.846,0.846,0.846,0.846,0,0.8154,0.8171,0.8193,0.8223,0.8242,0.8249,0.8273,0.8288,0.831,0.8332,0.8352,0.838,0.8404,0.8426,0.845,0.8462,0.8466,0.8467,0.8466,0.8469,0.846,0.8455,0.8463,0.8463,0.8463,0.8463,0.8463,0.8463,0.8164,0.819,0.8202,0.8236,0.8253,0.8278,0.8291,0.8309,0.8326,0.8357,0.8376,0.8391,0.8412,0.8438,0.8459,0.8465,0.8473,0.8473,0.848,0.8471,0.847,0.847,0.8465,0.8475,0.8475,0.8487,0.8487,0.8487]},{"header":{"parameterUnit":"m.s-1","parameterCategory":1,"la1":30.2991,"la2":30.254,"lo1":-89.0895,"lo2":-89.0444,"dy":0.0017,"dx":0.0017,"nx":28,"ny":28,"refTime":"2025-04-15T21:00:00:Z","depth":0,"parameterNumber":3,"parameterNumberName":"V-component_of_WINDS"},"data":[0,0,0,0,0,0,0,0,0,0,0,0,0,0,0,0,0,0,0,0,0,0,0,0,0,0,0,0,0,0,0,0,0,0,0,0,0,0,0,0,0,0,0,0,0,0,0,0,0,0,0,0,0,0,0,0,0,0,2.6488,2.6487,0,2.6434,2.6433,2.6432,2.6357,2.6356,2.6354,2.6353,2.6298,2.6298,2.6298,0,0,0,0,0,0,0,0,0,0,0,0,0,2.6526,2.6525,2.6488,2.6487,2.6487,2.6434,2.6433,2.6432,2.6357,2.6356,2.6354,2.6353,2.6298,2.6298,2.6297,0,0,0,0,0,0,0,0,0,0,0,0,0,2.6494,2.6525,2.6488,2.6443,2.6438,2.6434,2.6433,2.6432,2.6358,2.6356,2.6354,2.6352,2.6298,2.6298,2.6297,2.6333,0,0,2.6296,2.6296,0,0,0,0,0,0,0,0,2.6496,2.6493,2.645,2.6446,2.6441,2.64,2.6426,2.6399,2.6358,2.6388,2.6353,2.6351,2.6334,2.633,2.6324,2.633,2.6328,2.6296,2.6296,2.6296,2.6296,0,0,0,0,0,0,0,2.6498,2.6495,2.6466,2.645,2.6444,2.6425,2.6418,2.642,2.6372,2.6385,2.638,2.6374,2.6331,2.6325,2.6322,2.6327,2.6296,2.6296,2.6295,2.6295,2.6357,2.6359,0,0,0,0,0,0,2.6507,2.6497,2.6468,2.6465,2.6464,2.6426,2.6418,2.6415,2.6372,2.6364,2.6376,2.6371,2.6326,2.6323,2.632,2.6356,2.6296,2.6295,2.6295,2.6355,2.6357,2.6359,0,0,0,0,0,0,2.6509,2.6506,2.647,2.6479,2.6473,2.6427,2.6424,2.6415,2.6409,2.6365,2.6356,2.6379,2.6325,2.6321,2.633,2.6354,2.6295,2.6295,2.6353,2.6356,2.6358,2.6431,0,0,0,0,0,0,2.651,2.6506,2.652,2.648,2.6473,2.6481,2.6426,2.6415,2.6408,2.6401,2.6365,2.6357,2.6323,2.6331,2.6329,2.6352,2.6294,2.635,2.6354,2.6357,2.6427,2.6436,2.6445,0,0,0,0,0,2.6512,2.6543,2.6521,2.6518,2.6489,2.6483,2.6479,2.6438,2.6411,2.6423,2.6395,2.6359,2.6352,2.6332,2.633,2.6353,2.6349,2.6353,2.6357,2.6423,2.6434,2.6445,0,0,0,0,0,0,2.6587,2.6537,2.6512,2.6532,2.6512,2.647,2.6485,2.6453,2.6441,2.6435,2.6385,2.6377,2.6392,2.6374,2.6353,2.6384,2.6345,2.6349,2.6395,2.6406,2.6415,2.6418,2.6294,0,0,0,0,0,2.6606,2.6606,2.6562,2.6584,2.6575,2.6532,2.6528,2.6498,2.6476,2.6467,2.6439,2.6419,2.6412,2.6408,2.6399,2.6424,2.6414,2.6439,2.6448,2.6455,2.6459,2.6468,2.6477,2.6373,2.6373,2.6373,0,0,2.6646,2.6618,2.6621,2.6598,2.6579,2.6579,2.6525,2.6528,2.6527,2.6468,2.6473,2.6453,2.6426,2.6443,2.6448,2.6428,2.6485,2.6461,2.6467,2.6466,2.6473,2.6483,2.6492,2.6376,2.6376,2.6375,0,0,2.6716,2.6696,2.6711,2.6693,2.6665,2.6636,2.664,2.6602,2.6586,2.6591,2.6546,2.6544,2.6533,2.6515,2.6505,2.6568,2.6533,2.6566,2.6613,2.6623,2.6631,2.6638,2.6658,2.6666,2.657,2.6571,2.6571,0,2.6768,2.6766,2.6723,2.6727,2.6718,2.6664,2.6677,2.6662,2.6633,2.6627,2.6605,2.6588,2.6567,2.6577,2.6592,2.6587,2.6588,2.657,2.6633,2.664,2.6645,2.6664,2.6672,2.6575,2.6574,2.6574,2.6573,0,2.683,2.683,2.6845,2.6817,2.6809,2.6819,2.6776,2.6773,2.6744,2.6718,2.6722,2.6695,2.6678,2.6679,2.6651,2.6685,2.6672,2.6642,2.6601,2.666,2.6676,2.6683,2.658,2.6579,2.6578,2.6577,0,0,2.6947,2.6894,2.69,2.6886,2.6851,2.6849,2.6855,2.6839,2.6836,2.6818,2.6821,2.6812,2.6783,2.6772,2.6741,2.675,2.6798,2.6718,2.6717,2.6732,2.683,2.6851,2.686,2.6776,2.6777,2.6778,2.6831,0,2.7009,2.7017,2.6977,2.6995,2.6992,2.694,2.6945,2.6924,2.6899,2.6892,2.6865,2.6858,2.6822,2.6814,2.6821,2.6791,2.6817,2.6787,2.6776,2.6776,2.6782,2.6869,2.6892,2.6944,2.6838,2.6839,2.684,0,2.7083,2.7067,2.7085,2.7046,2.7044,2.7049,2.7029,2.7025,2.6999,2.6979,2.6966,2.693,2.6933,2.6895,2.6896,2.6877,2.687,2.6855,2.6856,2.6851,2.681,2.6866,2.696,2.6967,2.685,2.6849,2.6848,0,2.7163,2.7147,2.7154,2.7144,2.71,2.7105,2.7087,2.7059,2.7051,2.7034,2.7027,2.7012,2.7002,2.699,2.695,2.6927,2.6955,2.6915,2.6938,2.6939,2.6945,2.6945,2.7038,2.6945,2.6944,2.6944,2.6944,0,2.7235,2.7248,2.7189,2.7194,2.7205,2.7159,2.7172,2.7149,2.7124,2.7122,2.7077,2.7076,2.7025,2.7018,2.6987,2.6992,2.6988,2.6972,2.6963,2.6975,2.6977,2.6968,2.6963,2.6946,2.6946,2.6945,2.6945,0,2.7327,2.7288,2.7293,2.7251,2.724,2.725,2.7214,2.7216,2.7187,2.7185,2.7182,2.7138,2.7127,2.7087,2.7067,2.7046,2.7059,2.7044,2.7068,2.7062,2.7086,2.7084,2.7176,2.7184,2.7088,2.7089,2.709,0,2.7374,2.7382,2.7341,2.7336,2.732,2.7313,2.7304,2.726,2.7252,2.7222,2.7227,2.7212,2.7198,2.7183,2.7149,2.7132,2.7115,2.7148,2.7112,2.7123,2.7113,2.7112,2.7111,2.7156,2.7157,2.7158,2.7159,0,2.7462,2.7443,2.7432,2.7414,2.7404,2.7388,2.7369,2.7368,2.7318,2.7311,2.73,2.7289,2.7267,2.7253,2.723,2.7211,2.7176,2.7171,2.7175,2.7186,2.7198,2.7189,2.7087,2.7168,2.7168,2.7167,2.7166,2.7166,2.7531,2.7535,2.7506,2.7495,2.7476,2.7459,2.7457,2.7429,2.7418,2.7397,2.7371,2.7362,2.7334,2.73,2.7283,2.7274,2.7255,2.7262,2.7263,2.7265,2.7269,2.7201,2.727,2.727,2.727,2.7269,2.7269,0,2.7615,2.7593,2.7584,2.7558,2.7549,2.7517,2.7494,2.7488,2.7481,2.7458,2.7444,2.743,2.7415,2.7379,2.736,2.736,2.7344,2.7357,2.7355,2.7351,2.7289,2.7286,2.737,2.737,2.737,2.737,2.737,2.737,2.7657,2.7661,2.7638,2.7631,2.7609,2.76,2.7589,2.7572,2.7553,2.7539,2.7526,2.7503,2.7474,2.7452,2.7437,2.7426,2.7421,2.7439,2.7423,2.7365,2.7356,2.7346,2.7343,2.7438,2.7439,2.7485,2.7486,2.7486]}]]